Regional Weather Roundup
Issued by NWS

Home | Current Version | Previous Version | Graphics & Text | Print | Product List | Glossary On
Versions: 1 2 3 4 5 6 7 8 9 10 11 12 13 14 15 16 17 18 19 20 21 22 23 24 25 26 27 28 29 30 31 32 33 34 35 36 37 38 39 40 41 42 43 44 45 46 47 48 49 50
000
ASUS45 KPSR 031810
RWRAZ

ARIZONA HOURLY REGIONAL WEATHER ROUNDUP
NATIONAL WEATHER SERVICE PHOENIX AZ
1100 AM MST MON AUG 03 2015

NOTE: FAIR INDICATES FEW OR NO CLOUDS BELOW 12,000 FEET WITH NO
SIGNIFICANT WEATHER AND/OR OBSTRUCTIONS TO VISIBILITY.

AZZ001>003-036-031900-
NORTHWEST ARIZONA

CITY           SKY/WX    TMP DP  RH WIND       PRES   REMARKS
BULLHEAD CITY  SUNNY    100  48  17 S8        29.80S
KINGMAN        SUNNY     96  42  15 SW13G29   30.02R
6HR MIN TEMP:  71; 6HR MAX TEMP:  97;

$$

AZZ004>008-015-016-018-031900-
NORTH CENTRAL ARIZONA

CITY           SKY/WX    TMP DP  RH WIND       PRES   REMARKS
GRAND CANYON   MOSUNNY   81  39  22 SW15G22   30.27R
6HR MIN TEMP:  45; 6HR MAX TEMP:  81;

WILLIAMS       PTSUNNY   77  46  33 SW12      30.35S
FLAGSTAFF      PTSUNNY   76  41  28 W10G20    30.30F
6HR MIN TEMP:  47; 6HR MAX TEMP:  77;

PAYSON         SUNNY     86  45  23 VRB6      30.19S
$$

AZZ009>014-017-031900-
NORTHEAST ARIZONA

CITY           SKY/WX    TMP DP  RH WIND       PRES   REMARKS
WINSLOW        SUNNY     85  53  33 VRB3      30.16S
6HR MIN TEMP:  56; 6HR MAX TEMP:  85;

SAINT JOHNS    SUNNY     80  51  36 CALM      30.21F
6HR MIN TEMP:  55; 6HR MAX TEMP:  81;

SHOW LOW       PTSUNNY   77  39  25 NE7       30.28S
$$

AZZ023-031900-
GREATER PHOENIX AREA

CITY           SKY/WX    TMP DP  RH WIND       PRES   REMARKS
PHOENIX        MOSUNNY  101  53  20 VRB6      29.85F
6HR MIN TEMP:  87; 6HR MAX TEMP: 101;

GLENDALE       MOSUNNY  100  46  16 SE8       29.88R
LUKE AFB       SUNNY    100  48  17 S9        29.85F
DEER VALLEY    SUNNY     98  49  18 S12       29.88S
6HR MIN TEMP:  82; 6HR MAX TEMP:  99;

MESA-FALCON    MOSUNNY   99  52  20 S12       29.88S
MESA-GATEWAY   MOSUNNY   97  54  23 CALM      29.90F
$$

AZZ027-028-031900-
SOUTHWEST MARICOPA COUNTY AND PINAL COUNTY

CITY           SKY/WX    TMP DP  RH WIND       PRES   REMARKS
CASA GRANDE    SUNNY     99  50  19 W3        29.89S
6HR MIN TEMP:  79; 6HR MAX TEMP:  99;

GILA BEND      SUNNY    103  42  12 W8        29.84S
6HR MIN TEMP:  83; 6HR MAX TEMP: 103;

$$

AZZ503-504-507>509-031900-
SOUTHEAST ARIZONA

CITY           SKY/WX    TMP DP  RH WIND       PRES   REMARKS
TUCSON         NOT AVBL
DAVIS-MONTHAN  SUNNY     93  55  27 NE2       29.99S
6HR MIN TEMP:  78; 6HR MAX TEMP:  93;

NOGALES        SUNNY     89  57  33 NW6       30.09S
6HR MIN TEMP:  66; 6HR MAX TEMP:  89;

SIERRA VISTA   SUNNY     86  55  35 NE8       30.15F
DOUGLAS          N/A    N/A N/A N/A MISG      30.10S
SAFFORD        SUNNY     92  54  27 VRB3      30.00F
6HR MIN TEMP:  68; 6HR MAX TEMP:  93;

$$

AZZ020-021-025-026-031-031900-
SOUTHWEST ARIZONA

CITY           SKY/WX    TMP DP  RH WIND       PRES   REMARKS
YUMA           MOSUNNY  102  60  25 S12       29.79S HX 103
6HR MIN TEMP:  82; 6HR MAX TEMP: 102;

$$

CAZ031-033-041-043-047-048-061-031900-
SOUTHERN CALIFORNIA

CITY           SKY/WX    TMP DP  RH WIND       PRES   REMARKS
DOWNTOWN L.A.  SUNNY     82  64  54 CALM      29.90F
6HR MIN TEMP:  67; 6HR MAX TEMP:  82;

SAN DIEGO      MOSUNNY   73  61  65 SW9       29.93R
6HR MIN TEMP:  69; 6HR MAX TEMP:  74;

BURBANK        SUNNY     83  62  49 SE3       29.91F
6HR MIN TEMP:  67; 6HR MAX TEMP:  83;

EL CENTRO NAS  MOSUNNY  100  48  17 SE5       29.78S
6HR MIN TEMP:  79; 6HR MAX TEMP: 100;

NEEDLES        SUNNY    106  43  12 SE7       29.81S HX 101
6HR MIN TEMP:  86; 6HR MAX TEMP: 106;

$$

NVZ020-UTZ003-031900-
SOUTHERN NEVADA-UTAH

CITY           SKY/WX    TMP DP  RH WIND       PRES   REMARKS
LAS VEGAS      MOSUNNY  100  38  11 E8        29.85S
6HR MIN TEMP:  84; 6HR MAX TEMP: 100;

SALT LAKE CITY RAIN      63  61  94 NW7       30.13R
$$

NMZ009-TXZ055-031900-
NEW MEXICO-WEST TEXAS

CITY           SKY/WX    TMP DP  RH WIND       PRES   REMARKS
ALBUQUERQUE    NOT AVBL
EL PASO        PTSUNNY   86  58  38 VRB3      30.07S
6HR MIN TEMP:  72; 6HR MAX TEMP:  87;

$$


........................KEY........................
SKY/WX - SKY CONDITION/WEATHER
TMP    - TEMPERATURE IN FAHRENHEIT
DP     - DEW POINT IN FAHRENHEIT
RH     - RELATIVE HUMIDITY IN PERCENT
WIND   - DIRECTION AND SPEED IN MILES PER HOUR (MPH)
VRB    - VARIABLE WIND DIRECTION
PRES   - MEAN SEA LEVEL PRESSURE IN INCHES OF MERCURY
         F - FALLING PRESSURE   R - RISING PRESSURE
         S - STEADY PRESSURE
VSB    - VISIBILITY IN MILES
HX     - HEAT INDEX IN FAHRENHEIT
WCI    - WIND CHILL INDEX IN FAHRENHEIT
TC     - TEMPERATURE IN CELSIUS WHICH IS ALSO KNOWN AS
         TEMPERATURE IN CENTIGRADE
AFB    - AIR FORCE BASE
         LUKE AFB IS LUKE AIR FORCE BASE
         DAVIS-MONTHAN IS DAVIS-MONTHAN AIR FORCE BASE
NAS    - NAVAL AIR STATION
         EL CENTRO NAS IS EL CENTRO NAVAL AIR STATION
N/A    - NOT AVAILABLE



USA.gov is the U.S. government's official web portal to all federal, state and local government web resources and services.